Sparta, IL

11:20 PM CST on February 23, 2017 (GMT -0600)
Sparta Community-Hunter

Weather History for KSAR - May, 2013

Change the Weather History Date:

Sunday, May 5, 2013

  Actual Average (KBLV) Record (KBLV)
Temperature  
Mean Temperature 50 °F -  
Max Temperature 57 °F 75 °F 93 °F (1952)
Min Temperature 42 °F 48 °F 34 °F (1979)
Degree Days  
Heating Degree Days 16    
Moisture  
Dew Point 50 °F    
Average Humidity 94    
Maximum Humidity 100    
Minimum Humidity 87    
Precipitation  
Precipitation 0.00 in - - ()
Sea Level Pressure  
Sea Level Pressure 29.92 in    
Wind  
Wind Speed 4 mph (NNW)    
Max Wind Speed 12 mph    
Max Gust Speed 18 mph    
Visibility 8 miles    
Events Rain    
Averages and records for this station are not official NWS values.
T = Trace of Precipitation, MM = Missing Value Source: NWS Daily Summary

Daily Weather History Graph

Daily Weather History Graph

Search for Another Location

Airport or City:

Trip Planner

Search our weather history database for the weather conditions in past years. The results will help you decide how hot, cold, wet, or windy it might be!

Date:

Astronomy

May. 05, 2013 Rise Set
Actual Time 5:57 AM CDT 7:53 PM CDT
Civil Twilight 5:28 AM CDT 8:22 PM CDT
Nautical Twilight 4:53 AM CDT 8:57 PM CDT
Astronomical Twilight 4:16 AM CDT 9:35 PM CDT
Moon 3:24 AM CDT (5/5) 3:56 PM CDT (5/5)
Length of Visible Light 14h 53m
Length of Day
13h 56m
Waning Crescent, 18% of the Moon is Illuminated
May 5
Waning Crescent
May 9
New
May 17
First Quarter
May 24
Full
May 31
Last Quarter

Hourly Weather History & Observations

Time (CDT) Temp. Windchill Dew Point Humidity Pressure Visibility Wind Dir Wind Speed Gust Speed Precip Events Conditions
12:15 AM 42.8 °F - 41.0 °F 93% 29.99 in 10.0 mi Calm Calm - N/A   Clear
12:35 AM 44.6 °F - 41.0 °F 87% 29.99 in 10.0 mi Calm Calm - N/A   Mostly Cloudy
12:55 AM 42.8 °F - 42.8 °F 100% 29.98 in 10.0 mi Calm Calm - N/A   Unknown
1:15 AM 44.6 °F - 42.8 °F 93% 29.99 in 10.0 mi Calm Calm - N/A   Unknown
1:35 AM 44.6 °F - 42.8 °F 93% 29.98 in 10.0 mi Calm Calm - N/A Rain Light Rain
1:55 AM 44.6 °F - 42.8 °F 93% 29.98 in 10.0 mi Calm Calm - N/A   Drizzle
2:15 AM 44.6 °F - 42.8 °F 93% 29.97 in 7.0 mi Calm Calm - N/A   Light Drizzle
2:35 AM 44.6 °F - 44.6 °F 100% 29.96 in 7.0 mi Calm Calm - N/A   Unknown
2:55 AM 46.4 °F - 44.6 °F 93% 29.96 in 7.0 mi Calm Calm - N/A   Overcast
3:15 AM 46.4 °F - 44.6 °F 93% 29.97 in 7.0 mi Calm Calm - N/A   Unknown
3:35 AM 46.4 °F - 44.6 °F 93% 29.96 in 7.0 mi Calm Calm - N/A   Unknown
3:55 AM 46.4 °F 45.2 °F 44.6 °F 93% 29.96 in 7.0 mi WNW 3.5 mph - N/A   Unknown
4:15 AM 46.4 °F 44.3 °F 44.6 °F 93% 29.96 in 10.0 mi NW 4.6 mph - N/A   Overcast
4:35 AM 46.4 °F 45.2 °F 46.4 °F 100% 29.96 in 10.0 mi NW 3.5 mph - N/A   Overcast
4:55 AM 46.4 °F 43.5 °F 46.4 °F 100% 29.95 in 4.0 mi NW 5.8 mph - N/A   Overcast
5:15 AM 46.4 °F 43.5 °F 44.6 °F 93% 29.95 in 5.0 mi NW 5.8 mph - N/A   Drizzle
5:35 AM 46.4 °F 44.3 °F 44.6 °F 93% 29.95 in 7.0 mi NW 4.6 mph - N/A Rain Rain
5:55 AM 46.4 °F 43.5 °F 44.6 °F 93% 29.95 in 4.0 mi NW 5.8 mph - N/A Rain Light Rain
6:15 AM 46.4 °F 43.5 °F 44.6 °F 93% 29.95 in 4.0 mi WNW 5.8 mph - N/A Rain Rain
6:35 AM 46.4 °F 42.9 °F 44.6 °F 93% 29.95 in 3.0 mi NW 6.9 mph - N/A Rain Rain
6:55 AM 46.4 °F 42.9 °F 44.6 °F 93% 29.95 in 1.8 mi WNW 6.9 mph - N/A Rain Heavy Rain
7:15 AM 46.4 °F 43.5 °F 44.6 °F 93% 29.94 in 4.0 mi WNW 5.8 mph - N/A   Light Drizzle
7:35 AM 46.4 °F 42.4 °F 46.4 °F 100% 29.94 in 2.0 mi WNW 8.1 mph - N/A   Heavy Drizzle
7:55 AM 46.4 °F 43.5 °F 46.4 °F 100% 29.94 in 4.0 mi NW 5.8 mph - N/A   Drizzle
8:15 AM 48.2 °F - 46.4 °F 93% 29.94 in 4.0 mi WNW 5.8 mph - N/A Rain Heavy Rain
8:35 AM 48.2 °F - 46.4 °F 93% 29.94 in 2.5 mi NW 5.8 mph - N/A   Drizzle
8:55 AM 48.2 °F - 48.2 °F 100% 29.94 in 7.0 mi NW 8.1 mph - N/A   Drizzle
9:15 AM 50.0 °F - 48.2 °F 94% 29.94 in 5.0 mi NW 5.8 mph - N/A Rain Rain
9:35 AM 51.8 °F - 48.2 °F 88% 29.93 in 5.0 mi NW 6.9 mph - N/A Rain Rain
9:55 AM 51.8 °F - 50.0 °F 94% 29.92 in 5.0 mi NNW 8.1 mph - N/A Rain Rain
10:15 AM 53.6 °F - 51.8 °F 94% 29.92 in 7.0 mi North 5.8 mph - N/A Rain Rain
10:35 AM 53.6 °F - 51.8 °F 94% 29.91 in 7.0 mi North 8.1 mph - N/A Rain Light Rain
10:55 AM 55.4 °F - 53.6 °F 94% 29.92 in 10.0 mi North 11.5 mph 16.1 mph N/A   Overcast
11:15 AM 55.4 °F - 53.6 °F 94% 29.91 in 10.0 mi North 11.5 mph 18.4 mph N/A   Overcast
11:35 AM 55.4 °F - 53.6 °F 94% 29.92 in 10.0 mi North 9.2 mph - N/A   Overcast
11:55 AM 55.4 °F - 53.6 °F 94% 29.92 in 10.0 mi NNE 8.1 mph - N/A   Overcast
12:15 PM 57.2 °F - 53.6 °F 88% 29.91 in 10.0 mi North 10.4 mph - N/A Rain Rain
12:35 PM 57.2 °F - 53.6 °F 88% 29.91 in 10.0 mi North 10.4 mph - N/A Rain Rain
12:55 PM 57.2 °F - 55.4 °F 94% 29.90 in 7.0 mi North 5.8 mph - N/A Rain Rain
1:15 PM 57.2 °F - 55.4 °F 94% 29.90 in 10.0 mi North 10.4 mph - N/A Rain Light Rain
1:35 PM 57.2 °F - 55.4 °F 94% 29.90 in 10.0 mi North 10.4 mph 16.1 mph N/A Rain Light Rain
1:55 PM 57.2 °F - 55.4 °F 94% 29.89 in 10.0 mi North 9.2 mph - N/A   Scattered Clouds
2:15 PM 57.2 °F - 53.6 °F 88% 29.90 in 10.0 mi NNE 8.1 mph - N/A Rain Light Rain
2:35 PM 57.2 °F - 55.4 °F 94% 29.89 in 10.0 mi NNW 6.9 mph - N/A   Overcast
2:55 PM 57.2 °F - 53.6 °F 88% 29.89 in 10.0 mi North 4.6 mph - N/A   Overcast
3:15 PM 57.2 °F - 55.4 °F 94% 29.88 in 10.0 mi NW 4.6 mph - N/A   Light Drizzle
3:35 PM 57.2 °F - 55.4 °F 94% 29.88 in 10.0 mi Calm Calm - N/A Rain Light Rain
3:55 PM 57.2 °F - 55.4 °F 94% 29.88 in 7.0 mi North 3.5 mph - N/A   Drizzle
4:15 PM 57.2 °F - 55.4 °F 94% 29.88 in 5.0 mi North 5.8 mph - N/A Rain Light Rain
4:35 PM 57.2 °F - 55.4 °F 94% 29.88 in 3.0 mi Calm Calm - N/A   Drizzle
4:55 PM 57.2 °F - 55.4 °F 94% 29.88 in 10.0 mi NNE 3.5 mph - N/A Rain Rain
5:15 PM 57.2 °F - 55.4 °F 94% 29.88 in 10.0 mi NNE 4.6 mph - N/A   Mostly Cloudy
5:35 PM 57.2 °F - 55.4 °F 94% 29.88 in 10.0 mi NNE 5.8 mph - N/A   Mostly Cloudy
5:55 PM 57.2 °F - 55.4 °F 94% 29.88 in 10.0 mi North 3.5 mph - N/A   Mostly Cloudy
6:15 PM 57.2 °F - 55.4 °F 94% 29.88 in 10.0 mi North 3.5 mph - N/A   Mostly Cloudy
6:35 PM 57.2 °F - 55.4 °F 94% 29.88 in 10.0 mi North 5.8 mph - N/A   Mostly Cloudy
6:55 PM 57.2 °F - 55.4 °F 94% 29.88 in 10.0 mi NNE 8.1 mph - N/A   Mostly Cloudy
7:15 PM 57.2 °F - 55.4 °F 94% 29.89 in 10.0 mi NNE 5.8 mph - N/A   Overcast
7:35 PM 57.2 °F - 55.4 °F 94% 29.90 in 10.0 mi North 4.6 mph - N/A   Overcast
7:55 PM 57.2 °F - 55.4 °F 94% 29.90 in 10.0 mi North 5.8 mph - N/A   Overcast
8:15 PM 55.4 °F - 53.6 °F 94% 29.90 in 7.0 mi NNE 10.4 mph - N/A Rain Light Rain
8:35 PM 55.4 °F - 53.6 °F 94% 29.91 in 7.0 mi NE 5.8 mph - N/A   Drizzle
8:55 PM 55.4 °F - 53.6 °F 94% 29.91 in 10.0 mi NE 4.6 mph - N/A   Overcast
9:35 PM 55.4 °F - 53.6 °F 94% 29.92 in 10.0 mi NNE 4.6 mph - N/A   Overcast
9:55 PM 55.4 °F - 53.6 °F 94% 29.92 in 10.0 mi North 3.5 mph - N/A   Overcast
10:15 PM 55.4 °F - 53.6 °F 94% 29.93 in 10.0 mi North 4.6 mph - N/A   Overcast
10:35 PM 55.4 °F - 53.6 °F 94% 29.92 in 10.0 mi North 3.5 mph - N/A   Overcast
10:55 PM 55.4 °F - 53.6 °F 94% 29.92 in 10.0 mi NNW 3.5 mph - N/A   Overcast
11:15 PM 55.4 °F - 53.6 °F 94% 29.91 in 10.0 mi Calm Calm - N/A   Overcast
11:35 PM 55.4 °F - 53.6 °F 94% 29.91 in 10.0 mi North 3.5 mph - N/A   Overcast
11:55 PM 55.4 °F - 53.6 °F 94% 29.91 in 10.0 mi North 5.8 mph - N/A   Overcast